Weather History for CYYG - January, 2013

Change the Weather History Date:

Monday, January 28, 2013

  Actual Average Record
Temperature  
Mean Temperature 12 °F -  
Max Temperature 19 °F 26 °F 39 °F (2006)
Min Temperature 6 °F 10 °F 0 °F (2009)
Degree Days  
Heating Degree Days 52    
Moisture  
Dew Point -0 °F    
Average Humidity 56    
Maximum Humidity 73    
Minimum Humidity 32    
Precipitation  
Precipitation 0.00 in 0.12 in - ()
Sea Level Pressure  
Sea Level Pressure 30.11 in    
Wind  
Wind Speed 10 mph ()    
Max Wind Speed 15 mph    
Max Gust Speed 24 mph    
Visibility 15.0 miles    
Events      
Averages and records for this station are not official NWS values.
T = Trace of Precipitation, MM = Missing Value Source: Averaged Metar Reports

Daily Weather History Graph

Daily Weather History Graph

Search for Another Location

Airport or City:

Trip Planner

Search our weather history database for the weather conditions in past years. The results will help you decide how hot, cold, wet, or windy it might be!

Date:

Astronomy

Jan. 28, 2013 Rise Set
Actual Time 7:39 AM AST 5:11 PM AST
Civil Twilight 7:07 AM AST 5:44 PM AST
Nautical Twilight 6:31 AM AST 6:20 PM AST
Astronomical Twilight 5:55 AM AST 6:55 PM AST
Moon 7:11 PM AST (1/28) 7:55 AM AST (1/28)
Length of Visible Light 10h 36m
Length of Day
9h 31m
Full, 98% of the Moon is Illuminated
Jan 28
Full
Feb 3
Last Quarter
Feb 10
New
Feb 17
First Quarter
Feb 25
Full

Hourly Weather History & Observations

Time (AST) Temp. Windchill Dew Point Humidity Pressure Visibility Wind Dir Wind Speed Gust Speed Precip Events Conditions
12:00 AM 10.4 °F -3.3 °F 1.4 °F 67% 30.12 in 15.0 mi West 10.4 mph - N/A   Mostly Cloudy
1:00 AM 8.6 °F -5.5 °F 1.4 °F 73% 30.12 in 15.0 mi West 10.4 mph - N/A   Scattered Clouds
2:00 AM 9 °F - 0 °F 55% 30.11 in 15 mi West 10.4 mph - -   Scattered Clouds
2:00 AM 8.6 °F -5.5 °F 1.4 °F 73% 30.11 in 15.0 mi West 10.4 mph 17.3 mph N/A   Partly Cloudy
3:00 AM 8.6 °F -5.5 °F 1.4 °F 73% 30.11 in 15.0 mi West 10.4 mph - N/A   Partly Cloudy
4:00 AM 8.6 °F -6.3 °F -0.4 °F 67% 30.11 in 15.0 mi WNW 11.5 mph - N/A   Partly Cloudy
5:00 AM 8.6 °F -5.5 °F -0.4 °F 67% 30.12 in 15.0 mi West 10.4 mph - N/A   Scattered Clouds
6:00 AM 6.8 °F -8.6 °F -2.2 °F 67% 30.13 in 15.0 mi West 11.5 mph - N/A   Partly Cloudy
7:00 AM 6.8 °F -7.8 °F -2.2 °F 67% 30.14 in 15.0 mi West 10.4 mph - N/A   Partly Cloudy
8:00 AM 7 °F - -2 °F 54% 30.16 in 15 mi WNW 12.7 mph - -   Scattered Clouds
8:00 AM 6.8 °F -9.3 °F -2.2 °F 67% 30.16 in 15.0 mi WNW 12.7 mph 19.6 mph N/A   Partly Cloudy
9:00 AM 8.6 °F -7.7 °F -2.2 °F 62% 30.17 in 15.0 mi West 13.8 mph - N/A   Partly Cloudy
10:00 AM 10.4 °F -6.0 °F -2.2 °F 57% 30.16 in 15.0 mi WNW 15.0 mph 21.9 mph N/A   Partly Cloudy
11:00 AM 12.2 °F -1.0 °F -0.4 °F 57% 30.17 in 15.0 mi West 10.4 mph 18.4 mph N/A   Partly Cloudy
12:00 PM 12.2 °F -2.5 °F -0.4 °F 57% 30.14 in 15.0 mi WNW 12.7 mph 19.6 mph N/A   Partly Cloudy
1:00 PM 14.0 °F -0.2 °F -0.4 °F 53% 30.12 in 15.0 mi West 12.7 mph 19.6 mph N/A   Partly Cloudy
2:00 PM 16 °F - -1 °F 32% 30.10 in 15 mi West 13.8 mph - -   Scattered Clouds
2:00 PM 15.8 °F 1.4 °F -0.4 °F 49% 30.10 in 15.0 mi WNW 13.8 mph 20.7 mph N/A   Partly Cloudy
3:00 PM 17.6 °F 3.7 °F -0.4 °F 45% 30.08 in 15.0 mi WNW 13.8 mph 24.2 mph N/A   Partly Cloudy
4:00 PM 19.4 °F 7.2 °F 1.4 °F 46% 30.08 in 15.0 mi WNW 11.5 mph - N/A   Partly Cloudy
5:00 PM 19.4 °F 8.6 °F -2.2 °F 39% 30.08 in 15.0 mi WNW 9.2 mph - N/A   Partly Cloudy
6:00 PM 17.6 °F 6.4 °F -2.2 °F 42% 30.07 in 15.0 mi West 9.2 mph - N/A   Partly Cloudy
7:00 PM 15.8 °F 4.2 °F -2.2 °F 45% 30.07 in 15.0 mi West 9.2 mph - N/A   Partly Cloudy
8:00 PM 16 °F - 1 °F 36% 30.08 in 15 mi WSW 9.2 mph - -   Clear
8:00 PM 15.8 °F 4.2 °F 1.4 °F 53% 30.08 in 15.0 mi WSW 9.2 mph - N/A   Partly Cloudy
9:00 PM 15.8 °F 5.1 °F 1.4 °F 53% 30.06 in 15.0 mi West 8.1 mph - N/A   Clear
10:00 PM 15.8 °F 5.1 °F -0.4 °F 49% 30.05 in 15.0 mi WSW 8.1 mph - N/A   Clear
11:00 PM 14.0 °F 6.5 °F 1.4 °F 57% 30.05 in 15.0 mi WSW 4.6 mph - N/A   Clear